Lid_Strength_Index
5 5 5 5 5 5 5 5 5 5 5 4 4 3 3 3 4 3 2 1 2 3 3 4 5 5 5 5 6 5 5 5 5 7 8 8 8 7 8 7 8 8 9 9 8 11 12 5 5 8 6 4 4 4
6 5 5 5 5 5 5 5 5 5 5 5 4 4 4 4 4 4 1 1 1 3 3 3 3 3 4 4 5 4 5 5 4 6 6 6 8 7 7 9 6 9 7 9 8 9 5 4 4 3 3 4 4 4
5 5 5 5 5 5 5 5 5 5 5 5 5 5 5 4 4 4 1 2 1 3 3 3 4 2 2 2 1 4 2 3 3 3 4 5 7 6 8 7 7 6 5 7 8 6 5 4 3 3 3 4 3 3
5 5 5 5 5 5 5 5 5 5 5 5 5 5 5 5 5 6 2 2 2 3 5 4 3 2 1 1 1 2 2 2 2 2 4 5 6 4 6 6 7 6 5 7 6 5 5 4 4 3 3 3 3 3
5 5 5 5 5 5 5 5 5 5 5 5 5 5 6 6 6 4 1 2 2 4 6 4 4 2 1 1 2 2 2 2 3 4 5 6 4 5 5 6 7 4 6 7 7 5 6 5 4 3 4 4 3 3
4 4 4 4 4 5 5 5 5 5 5 5 5 5 5 6 7 2 3 2 2 3 5 7 4 2 2 3 3 3 3 3 3 4 4 3 4 5 6 7 6 5 5 4 6 4 4 4 3 3 3 3 3 3
5 5 4 4 4 4 4 5 5 5 5 5 5 5 5 5 2 3 4 4 5 2 5 7 5 3 3 3 2 3 3 2 3 3 4 4 4 4 6 8 6 5 4 4 4 4 5 4 5 3 3 3 3 2
4 5 5 4 4 4 4 5 5 5 5 5 6 6 5 5 5 3 2 4 4 3 3 6 6 5 2 4 5 2 4 3 4 4 4 5 4 5 7 6 5 5 4 4 4 3 3 3 3 3 2 3 3 3
4 4 4 5 5 4 4 5 5 5 5 5 5 5 2 2 2 2 4 3 0 2 5 5 6 7 2 3 3 4 3 6 3 5 5 5 5 8 7 7 5 5 5 5 4 3 3 4 4 3 3 3 4 3
4 4 4 4 4 5 5 4 4 5 5 5 3 2 4 2 4 3 2 3 4 3 4 5 3 6 4 4 5 4 4 5 7 6 4 7 7 6 5 5 4 4 4 3 5 5 4 4 4 4 3 3 3 3
4 4 4 4 4 4 4 5 5 5 4 3 5 4 3 2 2 2 5 6 5 7 4 4 4 5 2 6 5 4 5 5 8 7 7 8 8 7 5 4 3 3 3 3 3 3 3 3 3 3 3 3 3 2
3 4 5 4 4 4 4 4 5 4 5 5 6 5 4 3 4 7 7 6 7 8 5 5 5 4 4 2 5 5 6 6 9 5 8 9 8 5 4 4 3 3 3 3 2 3 2 2 2 3 3 3 3 2
3 3 4 5 4 4 4 4 4 4 4 4 5 5 4 5 12 9 10 8 8 6 5 5 6 3 4 3 4 6 9 8 4 8 9 9 6 4 4 3 3 3 3 3 3 3 2 2 2 2 3 2 2 2
3 3 3 4 4 4 4 4 4 4 3 4 6 12 7 8 7 6 6 6 5 4 4 4 5 4 4 5 5 8 6 6 9 11 11 7 6 4 3 3 3 3 3 3 3 2 2 2 3 2 2 2 2 3
3 3 3 3 3 4 4 4 4 2 3 6 6 11 7 5 4 3 3 4 3 2 3 5 4 4 5 6 5 6 9 10 8 9 7 5 4 4 4 3 3 3 3 3 3 3 3 2 2 3 2 2 2 2
2 3 2 3 3 4 4 3 2 1 3 5 6 7 5 6 5 5 4 5 2 3 3 3 6 7 7 6 8 9 10 10 9 6 5 4 4 4 4 3 3 3 3 3 3 3 3 3 3 2 2 2 2 2
3 3 3 3 3 3 4 2 2 4 4 6 6 4 5 5 5 4 3 3 2 4 6 5 9 9 5 8 9 7 8 7 5 5 4 3 4 4 3 3 3 3 3 3 3 3 2 2 2 3 3 2 2 2
4 2 3 3 3 3 1 1 3 4 7 5 6 4 4 3 4 3 2 2 4 4 4 6 5 8 8 9 8 6 4 3 4 4 4 3 3 3 3 3 3 3 3 3 3 3 3 3 3 3 2 2 3 3
3 2 3 3 3 4 5 3 3 6 5 4 4 4 4 4 2 3 3 2 2 2 3 4 7 7 6 4 5 4 4 4 5 4 4 3 3 3 3 3 3 3 3 3 3 4 3 3 3 3 3 3 4 3
2 2 2 2 3 5 7 5 2 5 6 5 4 5 4 4 2 3 3 3 3 4 6 6 6 4 4 3 3 4 4 3 4 5 5 3 3 3 3 3 4 3 3 3 3 4 3 3 3 3 3 4 5 6
3 3 3 3 4 5 6 5 5 4 4 5 3 4 4 4 4 5 5 3 5 5 6 4 4 2 2 2 2 3 3 2 4 4 5 5 3 3 3 3 2 2 4 4 3 4 4 5 5 5 5 6 5 5
4 3 4 3 5 5 6 4 5 4 5 4 5 5 6 6 6 5 3 5 6 5 4 3 2 3 4 4 2 2 2 3 3 3 5 4 4 3 3 3 3 3 3 3 3 3 3 2 3 4 4 4 5 5
3 4 4 4 6 7 7 3 6 5 7 6 4 6 6 6 4 3 6 5 4 3 2 2 3 3 3 2 2 2 2 3 4 4 2 3 2 2 2 2 2 2 3 2 2 2 2 5 4 3 3 3 4 3
3 5 6 6 6 8 4 6 4 5 6 6 7 8 7 6 4 6 8 6 4 3 3 4 3 4 3 3 4 3 3 2 2 2 3 3 3 3 2 2 2 2 2 2 2 2 2 2 4 2 2 3 3 4
8 8 6 10 6 7 8 8 8 7 9 7 8 7 6 5 8 8 7 6 5 4 4 4 4 3 4 3 4 3 2 3 4 4 3 2 3 3 3 2 2 1 2 3 3 2 2 2 2 3 4 4 4 4
11 7 9 7 8 8 7 9 8 8 7 8 8 6 5 7 9 10 7 5 5 4 4 4 4 4 5 4 3 4 3 2 2 3 2 2 2 3 3 4 3 3 1 1 2 2 3 3 3 4 4 5 7 4
10 8 6 3 5 6 7 6 5 7 9 9 9 8 7 10 10 9 5 4 4 2 1 1 2 2 3 3 2 2 2 1 1 1 0 1 2 1 2 3 3 2 -0 1 2 2 3 3 3 3 3 3 3 3
7 6 8 6 6 6 9 8 8 9 8 7 8 10 11 10 10 6 4 2 1 1 1 1 1 1 2 1 3 4 3 1 0 0 0 1 1 1 1 -1 -0 8 2 2 2 2 2 1 2 2 3 3 3 3
7 5 6 8 8 7 8 8 8 6 5 6 8 8 8 6 4 4 2 2 0 1 2 2 2 1 1 2 3 3 3 3 2 4 4 4 5 3 1 -0 0 2 2 1 9 5 2 2 3 3 2 2 2 2
7 5 8 8 8 9 7 5 6 5 5 4 3 4 4 4 3 2 2 2 2 3 2 2 2 2 3 4 4 5 5 4 6 5 5 7 7 5 2 2 2 1 1 0 1 1 7 3 4 1 3 3 3 3
5 6 7 7 8 6 6 5 4 4 4 4 3 5 6 4 3 2 2 2 2 2 2 4 3 3 4 3 4 4 5 4 3 4 3 3 3 3 2 1 1 1 1 2 2 2 2 2 2 3 3 3 3 4
6 7 8 9 8 6 5 6 6 6 5 5 5 4 5 5 6 3 2 1 3 3 4 3 4 3 3 4 5 5 8 3 2 2 2 2 1 1 1 1 2 2 2 2 2 2 2 3 3 3 3 3 3 3
7 7 7 7 7 7 5 6 7 7 6 6 6 5 5 6 6 3 0 -0 1 2 2 2 3 3 3 3 4 4 5 3 7 11 10 11 11 8 3 2 2 2 2 2 3 3 3 3 3 3 3 3 4 4